STARLINK-31474, 59304

Orbit data source: Space-Track

STARLINK-31474, 59304 is a payload satellite owned by SpaceX/Seattle (US) in LEO that was launched on Sun, 24 Mar 2024 UTC via an FALCON 9 launch vehicle from the Air Force Eastern Test Range (AFETR). Payload-class satellites include a variety of spacecraft equipped with specific instruments for various scientific and technological missions. These include communications satellites like Starlink; space stations such as the ISS; scientific satellites like the Hubble; Earth observation satellites from companies like Planet Labs, Umbra, and HawkEye 360; GPS; miniature CubeSats for education and research; and military/defense satellites.

Loading next visibility...
Identifier
59304, 2024-056J
Orbit
LEO
Country
Flag of USUS
Related business
Manufacturer
SpaceX/Seattle
Mission
Operational Commercial Communications
Bus & Motor
STARLINK V2M, Unknown motor
Mass
730 kg wet, ~700 kg dry
Launch date (UTC)
2024-03-24 (2 years ago)
Launch vehicle
FALCON 9
Launch site
Air Force Eastern Test Range (AFETR)
Object type
Payload
Rocket body
Debris
Shape & HBR
Box + 2 Pan, 17.7 m
Radar Cross Section
33.884 m², Large (>1 m²)

Expand to show TLE details & history
Last TLE update: 3 days ago

TLE from 3 days ago
0 STARLINK-31474
1 59304U 24056J   26169.97566951 -.00001946  00000-0 -61194-4 0  9997
2 59304  43.0021  11.8660 0001216 268.8147  91.2566 15.27588831126726
Epoch: 2026-06-18T23:24Z
TLE epoch observation values (Epoch: 2026-06-18T23:24:57.845Z)
Latitude
0.00002°
Longitude
113.41371°
Altitude
482.817 km
Speed
7.626 km/s
True Right ascension
00h 47m 27s
True Declination
0° 00' 00"
Sunlit
Object was in daylight at epoch
Visualization orbit readout
Latitude
Unknown
Longitude
Unknown
Altitude
Unknown
Speed
Unknown
Apparent Right ascension
Unknown
Apparent Declination
Unknown
Sunlit
N/A
Visualization observer readout
Local Sidereal Time
21:29:34
Azimuth
Unknown
Elevation
Unknown
Doppler factor
Unknown
Orbital elements
Apogee altitude
485.802 km
Perigee altitude
484.133 km
Semi-major axis
6,863.104 km
Eccentricity
0.00012
Inclination
43.0021°
RAAN
11.866°
Arg. of periapsis
268.8147°
True anomaly
91.27053°
Mean anomaly
91.2566°
Eccentric anomaly
91.26357°
Mean motion
3.81735 °/min
Orbital period
94.31 mins
BSTAR
-0.000061194
Loading maneuver chart data...
Computing Atmospheric mass density...
Loading historical data...
Loading historical data...
Loading historical data...
Loading historical data...
Loading historical data...
Loading historical data...
Loading historical data...

Documentation

Showing up to 5 results
|